Weather History for Hagerstown, MD

Change the Weather History Date:

Friday, August 16, 2013

  Actual Average Record
Temperature  
Mean Temperature 66 °F -  
Max Temperature 79 °F 82 °F 98 °F (1997)
Min Temperature 52 °F 63 °F 51 °F (2014)
Cooling Degree Days 1    
Month to date cooling degree days 111  
Year to date cooling degree days 856  
Since 1 June cooling degree days 739  
Growing Degree Days 16 (Base 50)    
Moisture  
Dew Point 52 °F    
Average Humidity 64    
Maximum Humidity 89    
Minimum Humidity 39    
Precipitation  
Precipitation 0.00 in - - ()
Month to date precipitation 1.29  
Year to date precipitation 18.77  
Sea Level Pressure  
Sea Level Pressure 30.20 in    
Wind  
Wind Speed 2 mph (ESE)    
Max Wind Speed 7 mph    
Max Gust Speed 28 mph    
Visibility 10 miles    
Events      
Averages and records for this station are not official NWS values.
T = Trace of Precipitation, MM = Missing Value Source: NWS Daily Summary

Daily Weather History Graph

Daily Weather History Graph

Search for Another Location

Airport:

Trip Planner

Search our weather history database for the weather conditions in past years. The results will help you decide how hot, cold, wet, or windy it might be!

Date:

Astronomy

Aug. 16, 2013 Rise Set
Actual Time 6:24 AM EDT 8:05 PM EDT
Civil Twilight 5:55 AM EDT 8:34 PM EDT
Nautical Twilight 5:20 AM EDT 9:08 PM EDT
Astronomical Twilight 4:43 AM EDT 9:45 PM EDT
Moon 4:21 PM EDT (8/16) 1:25 AM EDT (8/16)
Length of Visible Light 14h 38m
Length of Day
13h 41m
Waxing Gibbous, 74% of the Moon is Illuminated
Aug 16
Waxing Gibbous
Aug 20
Full
Aug 28
Last Quarter
Sep 5
New
Sep 12
First Quarter

Hourly Weather History & Observations

Time (EDT) Temp. Dew Point Humidity Pressure Visibility Wind Dir Wind Speed Gust Speed Precip Events Conditions
1:53 AM 60.1 °F 50.0 °F 69% 30.18 in 10.0 mi Calm Calm - N/A   Clear
2:53 AM 59.0 °F 48.9 °F 69% 30.17 in 10.0 mi East 3.5 mph - N/A   Clear
3:53 AM 55.9 °F 50.0 °F 80% 30.17 in 10.0 mi Calm Calm - N/A   Clear
4:53 AM 55.0 °F 50.0 °F 83% 30.17 in 10.0 mi Calm Calm - N/A   Clear
5:53 AM 55.9 °F 48.9 °F 77% 30.18 in 10.0 mi Calm Calm - N/A   Clear
6:53 AM 53.1 °F 50.0 °F 89% 30.20 in 10.0 mi Calm Calm - N/A   Clear
7:53 AM 59.0 °F 50.0 °F 72% 30.20 in 10.0 mi Calm Calm - N/A   Clear
8:53 AM 62.1 °F 54.0 °F 75% 30.21 in 10.0 mi Calm Calm - N/A   Clear
9:53 AM 66.9 °F 55.9 °F 68% 30.21 in 10.0 mi Calm Calm - N/A   Clear
10:53 AM 70.0 °F 55.9 °F 61% 30.21 in 10.0 mi Calm Calm - N/A   Clear
11:53 AM 72.0 °F 52.0 °F 49% 30.21 in 10.0 mi Variable 3.5 mph - N/A   Mostly Cloudy
12:53 PM 73.0 °F 51.1 °F 46% 30.20 in 10.0 mi Calm Calm - N/A   Clear
1:53 PM 75.9 °F 50.0 °F 40% 30.19 in 10.0 mi ESE 5.8 mph - N/A   Partly Cloudy
2:53 PM 75.9 °F 51.1 °F 42% 30.19 in 10.0 mi SE 6.9 mph - N/A   Mostly Cloudy
3:53 PM 77.0 °F 51.1 °F 40% 30.18 in 10.0 mi Variable 3.5 mph - N/A   Overcast
4:53 PM 78.1 °F 52.0 °F 40% 30.17 in 10.0 mi East 4.6 mph - N/A   Mostly Cloudy
5:53 PM 75.9 °F 51.1 °F 42% 30.18 in 10.0 mi Calm Calm - N/A   Partly Cloudy
6:53 PM 75.9 °F 50.0 °F 40% 30.19 in 10.0 mi ESE 4.6 mph - N/A   Clear
7:53 PM 73.0 °F 53.1 °F 49% 30.19 in 10.0 mi SE 4.6 mph - N/A   Clear
8:53 PM 71.1 °F 53.1 °F 53% 30.20 in 10.0 mi ESE 4.6 mph - N/A   Clear
9:53 PM 66.9 °F 54.0 °F 63% 30.23 in 10.0 mi ESE 4.6 mph - N/A   Clear
10:53 PM 64.9 °F 54.0 °F 68% 30.23 in 10.0 mi East 4.6 mph - N/A   Clear
11:53 PM 64.9 °F 54.0 °F 68% 30.23 in 10.0 mi Calm Calm - N/A   Clear